{"data":{"norad_id":60555,"epoch":"2026-05-25T04:18:28.728288Z","epoch_age_seconds":70218,"freshness":"FRESH","line1":"1 60555U 24149CR  26145.17949917  .00003213  00000+0  25401-3 0  9999","line2":"2 60555  97.6655 224.1998 0007879 181.9566 178.1629 15.01332370 96760","mean_motion":15.0133237,"eccentricity":0.0007879,"inclination_deg":97.6655,"raan_deg":224.1998,"arg_perigee_deg":181.9566,"mean_anomaly_deg":178.1629,"bstar":0.00025401,"rev_number":9676,"period_min":95.914803995067,"perigee_km":557.31803175916,"apogee_km":568.25553946053,"semimajor_km":6940.9237856098,"source":"CELESTRAK","updated_at":"2026-05-25T13:38:02.153611Z"}}